Location: College Park
(38.9810°N, 76.9370°W)
Time: 02:14:19
(UTC-05:00)

Tiangong 2 - Pass Details

Date: 11 November 2017
Orbit: 386 x 392 km, 42.8° (Epoch: 22 November)

Event Time Altitude Azimuth Distance (km) Brightness Sun altitude
Rises 19:13:31 0° 281° (W) 2,270 6.2 -26.7°
Reaches altitude 10° 19:15:57 10° 263° (W) 1,411 4.9 -27.2°
Enters shadow 19:17:13 16° 242° (WSW) 1,092 4.0 -27.4°
